Погода в Рогалике

Россия / Ростовская область     48°55′33″N   40°03′05″E
темп.,
°C
ветер,
м/с
пор.,
м/с
влажн.,
%
обл.,
%
осадки,
мм/ч
давл.,
гПа
погр.,
м
29 мая, вс
вс2900:00+14ссв228572 0.0 101424
03:00+13в1184100 0.0 101410
06:00+14вюв118793 0.3 101427
09:00+19юв337640 0.9 1014628
12:00+24ююз575311 0.1 10141714
15:00+23юз585599 0.2 1014804
18:00+17ссз5886100 0.3 1015329
21:00+14с478697 0.3 1017220
30 мая, пн
пн3000:00+12ссв369414 0.0 1017127
03:00+11св37965 0.0 1018147
06:00+13св46885 0.0 1019197
09:00+19всв44665 0.0 1019558
12:00+24в44535 0.0 10181080
15:00+26в344720 0.0 10171685
18:00+26в3455100 0.0 1017448
21:00+20всв4771100 0.0 101798
31 мая, вт
вт3100:00+18в5127537 0.0 1017246
03:00+17в4118384 0.0 1017205
06:00+18вюв513805 0.0 1017342
09:00+23вюв5860100 0.0 1017574
12:00+27вюв5645100 0.0 10161112
15:00+29вюв4542100 0.0 10151562
18:00+27вюв46527 0.0 1014301
21:00+21вюв35651 0.0 101463
1 июня, ср
ср100:00+19вюв2266100 0.0 101511
03:00+17с4980100 0.0 1016156
06:00+18в4876100 0.0 1015162
09:00+24в2353100 0.0 1016388
12:00+28вюв3440100 0.0 1016896
15:00+30вюв3435100 0.0 10151533
18:00+28вюв36466 0.0 1015185
21:00+22вюв33515 0.0 101628
2 июня, чт
чт200:00+20вюв33520 0.0 101619
03:00+18в22535 0.0 101613
06:00+19в22585 0.0 101648
09:00+25юв454410 0.0 1016434
12:00+29юв4538100 0.0 10161024
15:00+30юв5536100 0.0 10161645
18:00+28юв58499 0.0 1016324
21:00+22юв46652 0.0 101774